Regional Weather Roundup
Issued by NWS

Home | Current Version | Previous Version | Graphics & Text | Print | Product List | Glossary On
Versions: 1 2 3 4 5 6 7 8 9 10 11 12 13 14 15 16 17 18 19 20 21 22 23 24 25 26 27 28 29 30 31 32 33 34 35 36 37 38 39 40 41 42 43 44 45 46 47 48 49 50
282
ASUS45 KSLC 280210
RWRUT

UTAH REGIONAL WEATHER ROUNDUP
NATIONAL WEATHER SERVICE SALT LAKE CITY UT
800 PM MDT THU APR 27 2017

UTZ001>011-023>025-280300-

NORTHERN UTAH

CITY           SKY/WX    TMP DP  RH WIND       PRES   REMARKS
BRIGHAM CITY   MOCLDY    46  22  39 W15G21    29.83R
HILL AFB       MOCLDY    38  30  72 N13       29.83R WCI  30
LOGAN          CLOUDY    45  24  43 NW14      29.81R
OGDEN          LGT RAIN  38  32  79 NE14      29.83R WCI  30
SALT LAKE CITY MOCLDY    49  23  36 NW14      29.82F
TOOELE VALLEY  PTCLDY    43  28  56 NW14      29.85R
WENDOVER       PTCLDY    48  13  24 NW21G31   29.85S
HEBER CITY     CLOUDY    37  25  60 N10       29.81S WCI  30
WEST JORDAN    MOCLDY    47  32  55 NW12      29.84S

$$

UTZ011>015-024>027-280300-

CENTRAL/NORTHEAST UTAH

CITY           SKY/WX    TMP DP  RH WIND       PRES   REMARKS
PROVO AIRPORT  PTCLDY    44  26  49 NW17      29.85S
MOAB/CANYONLAN CLEAR     53  12  19 NW14      29.71R
DELTA          CLOUDY    45  27  49 N13G21    29.84R
PRICE          CLEAR     42  18  37 NW12      29.77R
RICHFIELD      CLEAR     43  32  65 SE7       29.86R
ROOSEVELT      CLEAR     46  10  23 W21G26    29.75S
VERNAL         PTCLDY    45  23  42 SE9       29.70R

$$

UTZ013>016-019>022-027-280300-

SOUTHERN UTAH

CITY           SKY/WX    TMP DP  RH WIND       PRES   REMARKS
BRYCE CANYON   MOCLDY    42  21  43 N17       29.81R
CEDAR CITY     PTCLDY    49  23  36 NE9       29.78R
MILFORD        CLOUDY    47  29  49 NE15      29.81R
ST GEORGE      MOCLDY    72  13  10 N20G25    29.63F
HANKSVILLE     CLEAR     54  21  28 NW17G23   29.75R
KANAB          PTCLDY    61  21  21 W12G20    29.74S
BLANDING       PTCLDY    48  10  21 N18       29.79S

$$

REGIONAL REPORTS     COLORADO/ARIZONA

CITY           SKY/WX    TMP DP  RH WIND       PRES   REMARKS
CRAIG, CO      CLOUDY    36  28  73 SW9       29.72R WCI  29
GRAND JUNCTION CLOUDY    51  16  24 W15G37    29.70R
RIFLE, CO      CLOUDY    43  31  62 CALM      29.73R
MONTROSE, CO   CLOUDY    47  20  34 N16G26    29.71R
CORTEZ, CO     CLOUDY    48  14  25 NW13      29.72R
COLORADO CITY    N/A     63  21  20 W10       29.74F
PAGE, AZ       MOCLDY    67  22  18 W10G26    29.65R
GRAND CANYON   PTCLDY    55  24  30 W10       29.80R
KINGMAN, AZ    CLEAR     74  26  16 W8        29.69F
FLAGSTAFF, AZ  PTCLDY    54  18  24 W20G31    29.81R

$$

REGIONAL REPORTS    NEVADA/IDAHO/WYOMING

CITY           SKY/WX    TMP DP  RH WIND       PRES   REMARKS
LAS VEGAS, NV  MOCLDY    81  15   8 NW17G23   29.61F
ELY, NY        PTCLDY    41  18  39 NW13G20   29.88R
ELKO, NV       MOCLDY    42  22  44 NW9       29.93S
POCATELLO, ID  LGT RAIN  42  26  53 W25       29.82R
BURLEY, ID     CLEAR     42  18  37 W22G36    29.84R
FORT BRIDGER,    N/A     31  26  81 W15       29.80R WCI  21
EVANSTON, WY   CLOUDY    31  24  75 W16       29.80R WCI  20
ROCK SPRINGS,  CLOUDY    37  16  42 W26G37    29.72R WCI  25
KEMMERER, WY     N/A     30  25  80 W16G25    29.75S WCI  19

$$




USA.gov is the U.S. government's official web portal to all federal, state and local government web resources and services.